EW3156 Weather Reports


Display with metric or nautical units.
time (UTC)temp
F
wind
direction
speed
MPH
gust
MPH
rain 1hr
in
rain 24hr
in
rain mn
in
humidity
%
barometer
mb
20260902084530 74 105 0.0 0.0 0.00 0.00 0.00 96 1016.6
20260902083029 75 105 0.0 0.0 0.00 0.00 0.00 96 1016.5
20260902081527 75 105 0.0 1.0 0.00 0.00 0.00 96 1016.4
20260902080031 75 105 0.0 1.0 0.00 0.00 0.00 95 1016.4
20260902074525 75 105 0.0 1.0 0.00 0.00 0.00 95 1016.5
20260902073024 75 105 0.0 1.0 0.00 0.00 0.00 95 1016.4
20260902071527 76 105 0.0 1.0 0.00 0.00 0.00 95 1016.4
20260902070026 76 105 0.0 1.0 0.00 0.00 0.00 94 1016.4
20260902064522 76 105 0.0 1.0 0.00 0.00 0.00 94 1016.5
20260902063020 76 105 0.0 1.0 0.00 0.00 0.00 94 1016.3
20260902061518 76 105 0.0 0.0 0.00 0.00 0.00 93 1016.5
20260902060019 76 105 0.0 0.0 0.00 0.00 0.00 93 1016.5
20260902054515 76 105 0.0 0.0 0.00 0.00 0.00 92 1016.6
20260902053024 77 105 0.0 0.0 0.00 0.00 0.00 92 1016.7
20260902051513 77 105 0.0 0.0 0.00 0.00 0.00 91 1016.6
20260902050012 77 105 0.0 0.0 0.00 0.00 0.00 90 1016.6
20260902044511 77 105 0.0 0.0 0.00 0.00 0.00 89 1016.7
20260902043008 78 105 0.0 0.0 0.00 0.00 0.00 89 1016.8
20260902041509 78 105 0.0 0.0 0.00 0.00 0.00 88 1016.8
20260902040007 78 105 0.0 0.0 0.00 0.00 0.00 88 1016.8
20260902034506 79 105 0.0 0.0 0.00 0.00 0.00 87 1016.8
20260902033006 79 105 0.0 0.0 0.00 0.00 0.00 86 1016.9
20260902031505 80 105 0.0 0.0 0.00 0.00 0.00 85 1016.8
20260902030004 80 105 0.0 0.0 0.00 0.00 0.00 84 1016.9
20260902024507 80 105 0.0 0.0 0.00 0.00 0.00 83 1016.8
20260902023004 81 105 0.0 0.0 0.00 0.00 0.00 82 1016.7
20260902021506 81 105 0.0 0.0 0.00 0.00 0.00 81 1016.7
20260902020003 82 105 0.0 0.0 0.00 0.00 0.00 79 1016.4
20260902014501 83 105 0.0 0.0 0.00 0.00 0.00 77 1016.3
20260902013002 83 105 0.0 1.0 0.00 0.00 0.00 73 1016.1
20260902011601 84 105 0.0 0.0 0.00 0.00 0.00 73 1016.0
20260902004559 85 105 0.0 0.0 0.00 0.00 0.00 70 1015.7
20260902003059 86 105 0.0 0.0 0.00 0.00 0.00 68 1015.7
20260902001558 87 105 0.0 1.0 0.00 0.00 0.00 66 1015.7
20260902000100 88 105 0.0 1.0 0.00 0.00 0.00 65 1015.7
20260901234613 89 105 0.0 1.0 0.00 0.00 0.00 64 1015.8
20260901233101 91 105 0.0 1.0 0.00 0.00 0.00 61 1015.9
20260901231556 91 105 1.0 3.0 0.00 0.00 0.00 58 1015.9
20260901230135 92 87 0.0 3.0 0.00 0.00 0.00 57 1015.8
20260901224555 92 84 0.0 4.0 0.00 0.00 0.00 56 1015.8
20260901223110 93 63 1.0 3.0 0.00 0.00 0.00 55 1015.8
20260901221553 93 105 1.0 4.0 0.00 0.00 0.00 54 1015.7
20260901220100 93 92 0.0 3.0 0.00 0.00 0.00 55 1015.6
20260901214552 94 181 0.0 4.0 0.00 0.00 0.00 55 1015.7
20260901213051 94 78 0.0 8.0 0.00 0.00 0.00 53 1015.7
20260901211554 95 96 0.0 6.0 0.00 0.00 0.00 50 1015.8
20260901210057 96 78 1.0 5.0 0.00 0.00 0.00 51 1016.1
20260901204549 96 65 2.0 5.0 0.00 0.00 0.00 49 1016.2
20260901203050 95 87 2.0 8.0 0.00 0.00 0.00 51 1016.2
20260901201543 96 107 2.0 5.0 0.00 0.00 0.00 52 1016.4
20260901200054 95 71 1.0 5.0 0.00 0.00 0.00 52 1016.7
20260901194559 95 88 2.0 4.0 0.00 0.00 0.00 51 1016.8
20260901193039 96 76 2.0 11.0 0.00 0.00 0.00 52 1016.8
20260901191535 97 88 0.0 6.0 0.00 0.00 0.00 52 1017.1
20260901190035 95 103 1.0 6.0 0.00 0.00 0.00 52 1017.2
20260901184530 95 67 1.0 4.0 0.00 0.00 0.00 52 1017.5
20260901183039 93 91 0.0 3.0 0.00 0.00 0.00 56 1017.6
20260901181527 93 84 1.0 6.0 0.00 0.00 0.00 58 1017.7
20260901180028 93 96 0.0 6.0 0.00 0.00 0.00 61 1017.8
20260901174524 93 82 1.0 6.0 0.00 0.00 0.00 58 1018.0
20260901173022 93 109 1.0 9.0 0.00 0.00 0.00 58 1018.1
20260901171523 93 68 1.0 4.0 0.00 0.00 0.00 59 1018.1
20260901170017 92 120 1.0 7.0 0.00 0.00 0.00 59 1018.4
20260901164516 93 245 0.0 3.0 0.00 0.00 0.00 59 1018.5
20260901163012 92 80 2.0 5.0 0.00 0.00 0.00 57 1018.6
20260901161509 92 106 2.0 7.0 0.00 0.00 0.00 58 1018.7
20260901160005 91 83 2.0 5.0 0.00 0.00 0.00 64 1018.8
20260901154502 90 88 0.0 2.0 0.00 0.00 0.00 65 1019.1
20260901153059 90 86 1.0 4.0 0.00 0.00 0.00 68 1019.0
20260901151555 89 82 0.0 3.0 0.00 0.00 0.00 71 1019.1
20260901150050 87 79 0.0 4.0 0.00 0.00 0.00 73 1019.2
20260901144547 87 80 1.0 4.0 0.00 0.00 0.00 74 1019.1
20260901143045 86 86 0.0 3.0 0.00 0.00 0.00 76 1019.2
20260901141550 85 86 0.0 3.0 0.00 0.00 0.00 79 1019.2
20260901140036 83 84 1.0 4.0 0.00 0.00 0.00 81 1019.2
20260901134528 81 84 0.0 3.0 0.00 0.00 0.00 85 1019.1
20260901133036 80 82 1.0 3.0 0.00 0.00 0.00 87 1019.3
20260901131519 78 82 1.0 3.0 0.00 0.00 0.00 90 1019.3
20260901130014 76 82 0.0 4.0 0.00 0.00 0.00 94 1019.3
20260901124511 74 101 0.0 2.0 0.00 0.00 0.00 97 1019.2
20260901123010 73 101 0.0 1.0 0.00 0.00 0.00 99 1019.0
20260901121507 72 101 0.0 0.0 0.00 0.00 0.00 100 1018.9
20260901120002 72 101 0.0 0.0 0.00 0.00 0.00 99 1018.6
20260901114603 72 101 0.0 0.0 0.00 0.00 0.00 99 1018.6
20260901113058 72 101 0.0 0.0 0.00 0.00 0.00 99 1018.3
20260901111601 72 101 0.0 0.0 0.00 0.00 0.00 99 1018.2
20260901110055 72 101 0.0 0.0 0.00 0.00 0.00 99 1017.9
20260901104554 72 101 0.0 0.0 0.00 0.00 0.00 99 1017.9
20260901103111 72 101 0.0 0.0 0.00 0.00 0.00 98 1017.9
20260901101555 72 101 0.0 0.0 0.00 0.00 0.00 98 1017.7
20260901100054 73 101 0.0 1.0 0.00 0.00 0.00 98 1017.8
20260901094550 73 101 0.0 0.0 0.00 0.00 0.00 98 1017.8
20260901093114 73 101 0.0 1.0 0.00 0.00 0.00 98 1017.6
20260901091645 73 101 0.0 0.0 0.00 0.00 0.00 98 1017.5
20260901090045 73 101 0.0 0.0 0.00 0.00 0.00 98 1017.5